Location: Street
(51.1247°N, 2.7429°W)
Time: 10:05:52
(UTC+00:00)

Tiros 1 - Pass Details

Date: 28 November 2020
Orbit: 630 x 663 km, 48.4° (Epoch: 21 January)

Event Time Altitude Azimuth Distance (km) Brightness Sun altitude
Rises 18:06:29 0° 259° (W) 2,990 12.3 -17.7°
Reaches altitude 10° 18:08:51 10° 257° (WSW) 2,075 11.0 -18.0°
Maximum altitude 18:13:35 63° 176° (S) 732 7.4 -18.8°
Enters shadow 18:15:22 36° 110° (ESE) 1,033 7.7 -19.0°
Drops below altitude 10° 18:18:17 10° 96° (E) 2,059 - -19.5°
Sets 18:20:38 0° 94° (E) 2,965 - -19.9°
